Location: Newark
(36.0797°N, 3.9744°E)
Time: 19:08:33
(UTC+00:00)

Vanguard 2 - Pass Details

Date: 15 December 2019
Orbit: 553 x 2938 km, 32.9° (Epoch: 28 January)

Event Time Altitude Azimuth Distance (km) Brightness Sun altitude
Exits shadow 03:15:40 71° 236° (WSW) 3,033 10.1 -41.8°
Maximum altitude 03:17:49 77° 189° (S) 2,987 10.2 -41.4°
Drops below altitude 10° 03:34:56 10° 107° (ESE) 5,352 12.5 -37.9°
Sets 03:38:39 0° 106° (ESE) 6,152 13.1 -37.2°
